Meridian, MS

8:52 AM CDT on October 23, 2019 (GMT -0500)
Key

Weather History for KMEI - August, 2019

Change the Weather History Date:

Thursday, August 22, 2019

  Actual Average Record
Temperature  
Mean Temperature 82 °F 80 °F  
Max Temperature 91 °F 91 °F 101 °F (2007)
Min Temperature 73 °F 69 °F 53 °F (1956)
Degree Days  
Heating Degree Days 0 0  
Month to date heating degree days 0 0  
Since 1 June heating degree days 0 0  
Since 1 July heating degree days 0 0  
Cooling Degree Days 18 15  
Month to date cooling degree days 419 344  
Year to date cooling degree days 1934 1491  
Since 1 June cooling degree days 1438 1208  
Growing Degree Days 32 (Base 50)    
Moisture  
Dew Point 73 °F    
Average Humidity 83    
Maximum Humidity 94    
Minimum Humidity 59    
Precipitation  
Precipitation T in 0.12 in 2.37 in (1926)
Month to date precipitation 3.37 2.98  
Year to date precipitation 41.95 37.95  
Sea Level Pressure  
Sea Level Pressure 30.01 in    
Wind  
Wind Speed 2 mph ()    
Max Wind Speed 14 mph    
Max Gust Speed 17 mph    
Visibility 8.9 miles    
Events Rain , Thunderstorm    
T = Trace of Precipitation, MM = Missing Value Source: Averaged Metar Reports

Daily Weather History Graph

Daily Weather History Graph

Search for Another Location

Airport or City:

Astronomy

Aug. 22, 2019 Rise Set
Actual Time 6:23 AM CDT 7:31 PM CDT
Civil Twilight 5:58 AM CDT 7:57 PM CDT
Nautical Twilight 5:27 AM CDT 8:27 PM CDT
Astronomical Twilight 4:56 AM CDT 8:58 PM CDT
Moon 11:45 PM CDT (8/22) 12:36 PM CDT (8/22)
Length of Visible Light 13h 59m
Length of Day
13h 08m
Waning Gibbous, 59% of the Moon is Illuminated
Aug 22
Waning Gibbous
Aug 23
Last Quarter
Aug 30
New
Sep 5
First Quarter
Sep 13
Full

Hourly Weather History & Observations

Time (CDT) Temp. Heat Index Dew Point Humidity Pressure Visibility Wind Dir Wind Speed Gust Speed Precip Events Conditions
12:07 AM 73.9 °F - 72.0 °F 93% 30.05 in 10.0 mi Calm Calm - N/A   Partly Cloudy
12:21 AM 73.9 °F - 72.0 °F 93% 30.04 in 6.0 mi SSW 3.5 mph - N/A   Partly Cloudy
12:24 AM 73.9 °F - 72.0 °F 93% 30.04 in 1.8 mi Calm Calm - N/A   Scattered Clouds
12:27 AM 73.9 °F - 72.0 °F 93% 30.04 in 0.8 mi Calm Calm - N/A   Mist
12:40 AM 73.9 °F - 72.0 °F 93% 30.03 in 2.5 mi Calm Calm - N/A   Mostly Cloudy
12:47 AM 73.0 °F - 71.1 °F 93% 30.03 in 6.0 mi Calm Calm - N/A   Mostly Cloudy
12:58 AM 73.9 °F - 72.0 °F 93% 30.01 in 9.0 mi South 3.5 mph - N/A   Scattered Clouds
1:58 AM 73.0 °F - 71.1 °F 93% 30.01 in 10.0 mi SW 3.5 mph - N/A   Partly Cloudy
2:58 AM 73.9 °F - 71.1 °F 91% 30.01 in 10.0 mi SSW 3.5 mph - N/A   Clear
3:58 AM 73.9 °F - 72.0 °F 93% 30.02 in 9.0 mi Calm Calm - N/A   Mostly Cloudy
4:28 AM 73.9 °F - 71.1 °F 91% 30.03 in 10.0 mi Calm Calm - N/A   Mostly Cloudy
4:49 AM 73.9 °F - 71.1 °F 91% 30.03 in 9.0 mi Calm Calm - N/A   Partly Cloudy
4:58 AM 73.9 °F - 71.1 °F 91% 30.03 in 9.0 mi Calm Calm - N/A   Partly Cloudy
5:12 AM 73.9 °F - 71.1 °F 91% 30.04 in 10.0 mi Calm Calm - N/A   Mostly Cloudy
5:58 AM 75.0 °F - 73.0 °F 94% 30.04 in 5.0 mi Calm Calm - N/A   Overcast
6:58 AM 75.0 °F - 73.0 °F 94% 30.05 in 6.0 mi South 3.5 mph - N/A   Overcast
7:58 AM 75.9 °F - 73.0 °F 91% 30.05 in 8.0 mi South 3.5 mph - N/A   Overcast
8:58 AM 77.0 °F - 73.9 °F 90% 30.05 in 10.0 mi SSW 3.5 mph - N/A   Scattered Clouds
9:58 AM 81.0 °F 87.3 °F 75.9 °F 85% 30.05 in 10.0 mi South 6.9 mph - N/A   Partly Cloudy
10:53 AM 82.4 °F 89.5 °F 75.2 °F 79% 30.06 in 10.0 mi SSW 5.8 mph - N/A   Mostly Cloudy
10:58 AM 84.0 °F 91.9 °F 75.0 °F 74% 30.05 in 10.0 mi SW 6.9 mph - N/A   Scattered Clouds
11:06 AM 84.9 °F 94.1 °F 75.9 °F 74% 30.06 in 10.0 mi Variable 5.8 mph - N/A   Mostly Cloudy
11:58 AM 84.9 °F 94.1 °F 75.9 °F 74% 30.03 in 10.0 mi SSW 6.9 mph - 0.00 in Rain Light Rain
12:05 PM 86.0 °F 96.0 °F 75.9 °F 72% 30.04 in 10.0 mi SSW 6.9 mph - 0.00 in   Mostly Cloudy
12:58 PM 88.0 °F 97.5 °F 75.0 °F 65% 30.01 in 10.0 mi SSE 6.9 mph - 0.00 in   Mostly Cloudy
1:05 PM 89.1 °F 99.1 °F 75.0 °F 63% 30.01 in 10.0 mi SSE 6.9 mph - N/A   Mostly Cloudy
1:58 PM 89.1 °F 98.0 °F 73.9 °F 61% 30.00 in 10.0 mi South 8.1 mph - N/A Thunderstorm Mostly Cloudy
2:56 PM 84.2 °F 90.9 °F 73.4 °F 70% 29.99 in 10.0 mi WNW 5.8 mph - N/A   Overcast
2:58 PM 84.0 °F 90.2 °F 73.0 °F 69% 29.99 in 10.0 mi WSW 4.6 mph - N/A   Overcast
3:11 PM 84.0 °F 91.2 °F 73.9 °F 72% 29.98 in 10.0 mi West 3.5 mph - 0.00 in Rain Light Rain
3:21 PM 84.0 °F 91.9 °F 75.0 °F 74% 29.98 in 10.0 mi ESE 4.6 mph - 0.00 in Thunderstorm Thunderstorm
3:36 PM 84.0 °F 91.9 °F 75.0 °F 74% 29.98 in 10.0 mi Calm Calm - 0.00 in Thunderstorm Partly Cloudy
3:54 PM 84.2 °F 90.9 °F 73.4 °F 70% 29.98 in 10.0 mi NNW 4.6 mph - 0.00 in   Partly Cloudy
3:58 PM 84.9 °F 92.1 °F 73.9 °F 69% 29.97 in 10.0 mi North 3.5 mph - 0.00 in   Partly Cloudy
4:58 PM 79.0 °F - 73.0 °F 82% 29.97 in 10.0 mi West 4.6 mph - 0.00 in   Partly Cloudy
5:58 PM 79.0 °F - 73.9 °F 84% 29.96 in 10.0 mi Calm Calm - 0.00 in   Partly Cloudy
6:58 PM 80.1 °F 84.5 °F 73.9 °F 81% 29.96 in 10.0 mi NNW 5.8 mph - N/A   Clear
7:58 PM 78.1 °F - 73.9 °F 87% 29.95 in 10.0 mi South 4.6 mph - N/A   Clear
8:58 PM 77.0 °F - 73.0 °F 88% 29.96 in 10.0 mi Calm Calm - N/A   Clear
9:58 PM 75.9 °F - 73.0 °F 91% 29.99 in 10.0 mi Calm Calm - N/A   Clear
10:58 PM 75.9 °F - 73.0 °F 91% 30.00 in 10.0 mi South 3.5 mph - N/A   Scattered Clouds
11:58 PM 75.9 °F - 73.0 °F 91% 30.00 in 10.0 mi South 4.6 mph - N/A   Clear